Location: Peebles
(55.6412°N, 3.1714°W)
Time: 14:47:17
(UTC+01:00)

ISS - Pass Details

Date: 26 September 2021
Orbit: 417 x 423 km, 51.6° (Epoch: 18 October)

Event Time Altitude Azimuth Distance (km) Brightness Sun altitude
Rises 19:53:44 0° 256° (WSW) 2,362 1.5 -8.3°
Reaches altitude 10° 19:55:53 10° 249° (WSW) 1,500 0.1 -8.6°
Maximum altitude 19:59:05 42° 178° (S) 615 -3.0 -9.0°
Enters shadow 20:01:46 14° 109° (ESE) 1,302 -1.9 -9.4°
